This is the latest recevied weather packets stored in our database for station/object BARLOW-WX. If no packets are shown the sender has not sent any weather packets the latest 10 day(s).
| Time | Temp. | Humidity | Pressure | Rain* | Wind** | Luminosity | Snow |
|---|---|---|---|---|---|---|---|
| 1777426291 | 11.11° C | 77% | 984.6 hPa | 0 mm | - | - | - |
| 1777425376 | 11.11° C | 77% | 984.6 hPa | 0 mm | - | - | - |
| 1777424502 | 11.11° C | 77% | 984.6 hPa | 0 mm | - | - | - |
| 1777423575 | 11.11° C | 74% | 984.2 hPa | 0 mm | - | - | - |
| 1777422689 | 11.11° C | 77% | 984.8 hPa | 0 mm | - | - | - |
| 1777421775 | 11.67° C | 77% | 984.8 hPa | 0 mm | - | - | - |
| 1777420912 | 11.67° C | 77% | 984.8 hPa | 0 mm | - | - | - |
| 1777419975 | 11.67° C | 66% | 985.1 hPa | 0 mm | - | - | - |
| 1777419091 | 12.22° C | 69% | 985.2 hPa | 0 mm | - | - | - |
| 1777418175 | 12.78° C | 69% | 985.2 hPa | 0 mm | - | - | - |
| 1777417299 | 12.78° C | 69% | 985.2 hPa | 0 mm | - | - | - |
| 1777416375 | 13.33° C | 66% | 985.3 hPa | 0 mm | - | - | - |
| 1777415489 | 13.33° C | 68% | 985 hPa | 0 mm | - | - | - |
| 1777414575 | 13.33° C | 68% | 985 hPa | 0 mm | - | - | - |
| 1777413705 | 13.33° C | 68% | 985 hPa | 0 mm | - | - | - |
| 1777412774 | 13.33° C | 70% | 984.8 hPa | 0 mm | - | - | - |
| 1777411889 | 13.33° C | 70% | 984.8 hPa | 0 mm | - | - | - |
| 1777410976 | 12.78° C | 70% | 984.8 hPa | 0 mm | - | - | - |
| 1777410104 | 12.78° C | 70% | 984.8 hPa | 0 mm | - | - | - |
| 1777409175 | 12.78° C | 73% | 984.7 hPa | 0 mm | - | - | - |
| 1777408295 | 12.78° C | 83% | 984.5 hPa | 0 mm | - | - | - |
| 1777407375 | 11.67° C | 83% | 984.5 hPa | 0 mm | - | - | - |
| 1777406503 | 12.22° C | 77% | 984.5 hPa | 0 mm | - | - | - |
| 1777405575 | 12.22° C | 82% | 983.7 hPa | 0 mm | - | - | - |
| 1777404691 | 12.22° C | 82% | 983.7 hPa | 0 mm | - | - | - |
* Rain latest hour (hover to see other rain measurements)
** Current wind speed in m/s (hover to see current wind gust speed)